Home   Weather   Staunton   Past weeks
Flag for USA

Past Weather in Staunton, Virginia, USA — Yesterday and Last 2 Weeks

Now
73 °F

Clear.


Feels Like: 76 °F
Forecast: 67 / 49 °F
Wind: 7 mph from West

Location: Eagles Nest Airport

Current Time: Mar 29, 2020 at 8:29:40 pm

Latest Report: Mar 29, 2020 at 7:55 pm


Visibility: 10 mi

Pressure: 29.85 "Hg

Humidity: 26%

Dew Point: 36 °F

Location of StauntonLocation

Past Weather in Staunton — Graph

°F

Staunton Temperature Yesterday

Maximum temperature yesterday: 75 °F (at 3:55 pm)
Minimum temperature yesterday: 54 °F (at 7:15 am)
Average temperature yesterday: 62 °F

High & Low Weather Summary for the Past Weeks

 TemperatureHumidityPressure
High82 °F (Mar 29, 4:15 pm)100% (Mar 15, 2:55 am)30.52 "Hg (Mar 15, 2:55 am)
Low35 °F (Mar 18, 5:55 am)19% (Mar 29, 5:35 pm)29.78 "Hg (Mar 27, 4:55 am)
Average51 °F79%30.15 "Hg
* Reported Mar 14 7:15 pm — Mar 29 7:15 pm, Staunton. Weather by CustomWeather, © 2020

Note: Actual official high and low records may vary slightly from our data, if they occured in-between our weather recording intervals... More about our weather records

Staunton Weather History for the Previous 24 Hours

Scroll right to see more
 ConditionsComfort  
Time TempWeatherWind HumidityBarometerVisibility
7:15 pm
Sun, Mar 29
76 °FSunny.10 mph26%29.83 "Hg10 mi
6:55 pm77 °FSunny.15 mph25%29.83 "Hg10 mi
6:35 pm78 °FSunny.12 mph24%29.82 "Hg10 mi
6:15 pm79 °FSunny.15 mph22%29.82 "Hg10 mi
5:55 pm79 °FSunny.15 mph19%29.82 "Hg10 mi
5:35 pm80 °FSunny.12 mph19%29.80 "Hg10 mi
5:15 pm82 °FSunny.21 mph25%29.80 "Hg10 mi
4:55 pm82 °FSunny.16 mph24%29.79 "Hg10 mi
4:15 pm82 °FSunny.21 mph26%29.79 "Hg10 mi
3:55 pm81 °FSunny.14 mph33%29.79 "Hg10 mi
3:15 pm82 °FScattered clouds.23 mph38%29.80 "Hg10 mi
2:55 pm82 °FSunny.17 mph39%29.81 "Hg10 mi
2:35 pm81 °FSunny.23 mph40%29.81 "Hg10 mi
1:55 pm81 °FSunny.22 mph43%29.83 "Hg10 mi
1:35 pm80 °FSunny.16 mph46%29.84 "Hg10 mi
1:15 pm81 °FSunny.12 mph44%29.84 "Hg10 mi
12:55 pm78 °FSunny.9 mph52%29.85 "Hg10 mi
12:15 pm74 °FSunny.12 mph56%29.86 "Hg10 mi
11:55 am73 °FSunny.12 mph62%29.86 "Hg10 mi
11:35 am71 °FSunny.6 mph73%29.88 "Hg10 mi
11:15 am63 °FScattered clouds.No wind93%29.90 "Hg10 mi
10:55 am61 °FPartly sunny.3 mph99%29.91 "Hg10 mi
10:35 am62 °FOvercast.No wind96%29.95 "Hg10 mi
9:55 am58 °FScattered clouds.No wind99%29.98 "Hg10 mi
9:35 am57 °FScattered clouds.5 mph100%29.98 "Hg7 mi
9:15 am55 °FSunny.No wind100%29.96 "Hg4 mi
8:55 am55 °FScattered clouds.5 mph100%29.96 "Hg5 mi
8:15 am54 °FScattered clouds.3 mph99%29.95 "Hg2 mi
7:55 am53 °FScattered clouds.No wind100%29.93 "Hg2 mi
7:15 am53 °FLow clouds.3 mph100%29.93 "Hg0 mi
6:55 am54 °FLow clouds.3 mph99%29.91 "Hg0 mi
6:35 am54 °FLow clouds.No wind100%29.91 "Hg0 mi
6:15 am54 °FLow clouds.No wind100%29.91 "Hg0 mi
5:55 am53 °FLow clouds.No wind100%29.91 "Hg0 mi
5:35 am54 °FLow clouds.No wind99%29.91 "Hg0 mi
5:15 am54 °FLow clouds.No wind100%29.91 "Hg0 mi
4:55 am54 °FLow clouds.No wind100%29.91 "Hg0 mi
4:35 am54 °FLow clouds.No wind99%29.91 "Hg0 mi
4:15 am54 °FLow clouds.3 mph100%29.91 "Hg0 mi
3:55 am54 °FLow clouds.6 mph100%29.91 "Hg0 mi
3:35 am54 °FLow clouds.No wind99%29.91 "Hg0 mi
2:55 am54 °FLow clouds.No wind99%29.92 "Hg0 mi
2:35 am54 °FLow clouds.3 mph99%29.94 "Hg0 mi
2:15 am55 °FLow clouds.6 mph99%29.94 "Hg0 mi
1:55 am55 °FLow clouds.3 mph100%29.94 "Hg1 mi
1:35 am55 °FPassing clouds.7 mph100%29.95 "Hg5 mi
1:15 am56 °FClear.12 mph99%29.94 "Hg7 mi
12:55 am57 °FClear.6 mph100%29.95 "Hg7 mi
12:35 am58 °FClear.6 mph98%29.94 "Hg10 mi
12:15 am58 °FClear.3 mph97%29.94 "Hg10 mi
11:55 pm
Sat, Mar 28
59 °FClear.5 mph95%29.94 "Hg10 mi
11:35 pm60 °FClear.10 mph92%29.94 "Hg10 mi
11:15 pm60 °FClear.10 mph90%29.94 "Hg10 mi
10:55 pm60 °FClear.9 mph90%29.94 "Hg10 mi
10:35 pm62 °FClear.8 mph85%29.93 "Hg10 mi
10:15 pm63 °FClear.6 mph83%29.93 "Hg10 mi
9:55 pm63 °FClear.3 mph83%29.93 "Hg10 mi
9:15 pm63 °FClear.7 mph81%29.93 "Hg10 mi
8:55 pm64 °FClear.12 mph79%29.93 "Hg10 mi
8:15 pm67 °FClear.8 mph72%29.91 "Hg10 mi
Weather by CustomWeather, © 2020

See weather overview

Advertising